This is the latest recevied weather packets stored in our database for station/object PY2FGD-13. If no packets are shown the sender has not sent any weather packets the latest 10 day(s).
| Time | Temp. | Humidity | Pressure | Rain* | Wind** | Luminosity | Snow |
|---|---|---|---|---|---|---|---|
| 1777421273 | 23.33° C | 76% | 1016 hPa | - | - | - | - |
| 1777419457 | 23.33° C | 76% | 1015.9 hPa | - | - | - | - |
| 1777418872 | 23.33° C | 76% | 1015.8 hPa | - | - | - | - |
| 1777418256 | 23.33° C | 77% | 1015.6 hPa | - | - | - | - |
| 1777408073 | 23.33° C | 79% | 1015 hPa | - | - | - | - |
| 1777406257 | 23.33° C | 80% | 1014.8 hPa | - | - | - | - |
| 1777405656 | 23.33° C | 80% | 1014.5 hPa | - | - | - | - |
| 1777403256 | 23.89° C | 79% | 1014.2 hPa | - | - | - | - |
| 1777397857 | 23.89° C | 78% | 1013.9 hPa | - | - | - | - |
| 1777391857 | 23.89° C | 76% | 1014.5 hPa | - | - | - | - |
| 1777390656 | 23.89° C | 76% | 1014.7 hPa | - | - | - | - |
| 1777387072 | 23.33° C | 76% | 1015.6 hPa | - | - | - | - |
| 1777385256 | 23.33° C | 76% | 1015.9 hPa | - | - | - | - |
| 1777384656 | 23.33° C | 76% | 1016.1 hPa | - | - | - | - |
| 1777379256 | 23.33° C | 77% | 1016.3 hPa | - | - | - | - |
| 1777375056 | 23.33° C | 79% | 1016 hPa | - | - | - | - |
| 1777374456 | 23.33° C | 79% | 1015.9 hPa | - | - | - | - |
| 1777364271 | 23.33° C | 76% | 1013.8 hPa | - | - | - | - |
| 1777360655 | 23.89° C | 76% | 1013.8 hPa | - | - | - | - |
| 1777359456 | 23.89° C | 76% | 1013.7 hPa | - | - | - | - |
| 1777351057 | 23.89° C | 76% | 1014.2 hPa | - | - | - | - |
| 1777348655 | 23.89° C | 77% | 1014.2 hPa | - | - | - | - |
| 1777345055 | 23.89° C | 77% | 1013.4 hPa | - | - | - | - |
| 1777342655 | 23.89° C | 78% | 1014.3 hPa | - | - | - | - |
| 1777341455 | 23.89° C | 80% | 1014.7 hPa | - | - | - | - |
* Rain since midnight (hover to see other rain measurements)
** Current wind speed in m/s (hover to see current wind gust speed)